Weather History for Guernsey, United Kingdom

Change the Weather History Date:

Sunday, October 6, 2013

  Actual Average Record
Temperature  
Mean Temperature 58 °F -  
Max Temperature 63 °F 56 °F 64 °F (2001)
Min Temperature 54 °F 50 °F 48 °F (1998)
Degree Days  
Heating Degree Days 6    
Growing Degree Days 8 (Base 50)    
Moisture  
Dew Point 57 °F    
Average Humidity 93    
Maximum Humidity 100    
Minimum Humidity 78    
Precipitation  
Precipitation 0.00 in - - ()
Sea Level Pressure  
Sea Level Pressure 30.32 in    
Wind  
Wind Speed 4 mph ()    
Max Wind Speed 10 mph    
Max Gust Speed -    
Visibility 6.2 miles    
Events Fog    
Averages and records for this station are not official NWS values.
T = Trace of Precipitation, MM = Missing Value Source: Averaged Metar Reports

Daily Weather History Graph

Daily Weather History Graph

Search for Another Location

Airport:

Trip Planner

Search our weather history database for the weather conditions in past years. The results will help you decide how hot, cold, wet, or windy it might be!

Date:

Astronomy

Oct. 06, 2013 Rise Set
Actual Time 7:17 AM BST 6:38 PM BST
Civil Twilight 6:45 AM BST 7:10 PM BST
Nautical Twilight 6:08 AM BST 7:47 PM BST
Astronomical Twilight 5:31 AM BST 8:24 PM BST
Moon 8:57 AM BST (10/6) 7:14 PM BST (10/6)
Length of Visible Light 12h 24m
Length of Day
11h 20m
New Moon, 2% of the Moon is Illuminated
Oct 6
New Moon
Oct 12
First Quarter
Oct 19
Full
Oct 27
Last Quarter
Nov 3
New

Hourly Weather History & Observations

Time (BST) Temp. Dew Point Humidity Pressure Visibility Wind Dir Wind Speed Gust Speed Precip Events Conditions
1:00 AM 57 °F 56 °F 97% 30.31 in 28 mi WSW 3.5 mph - -   Mostly Cloudy
3:50 AM 55.4 °F 55.4 °F 100% 30.30 in 6.2 mi WSW 4.6 mph - N/A   Partly Cloudy
4:20 AM 57.2 °F 57.2 °F 100% 30.30 in 6.2 mi SW 4.6 mph - N/A   Scattered Clouds
4:50 AM 57.2 °F 55.4 °F 94% 30.30 in 6.2 mi WSW 5.8 mph - N/A   Scattered Clouds
5:20 AM 55.4 °F 55.4 °F 100% 30.30 in 6.2 mi WSW 3.5 mph - N/A   Scattered Clouds
5:50 AM 55.4 °F 55.4 °F 100% 30.30 in 6.2 mi West 3.5 mph - N/A   Partly Cloudy
6:20 AM 55.4 °F 55.4 °F 100% 30.30 in 6.2 mi WSW 4.6 mph - N/A   Partly Cloudy
6:50 AM 55.4 °F 55.4 °F 100% 30.30 in 6.2 mi WSW 3.5 mph - N/A   Partly Cloudy
7:00 AM 56 °F 55 °F 97% 30.32 in 25 mi WSW 3.5 mph - -   Mostly Cloudy
7:20 AM 57.2 °F 57.2 °F 100% 30.30 in 6.2 mi WSW 4.6 mph - N/A   Partly Cloudy
7:50 AM 57.2 °F 55.4 °F 94% 30.30 in 6.2 mi SW 2.3 mph - N/A   Partly Cloudy
8:20 AM 57.2 °F 57.2 °F 100% 30.30 in 6.2 mi Calm Calm - N/A   Partly Cloudy
8:50 AM 59.0 °F 57.2 °F 94% 30.30 in 6.2 mi SSW 2.3 mph - N/A   Partly Cloudy
9:20 AM 59.0 °F 59.0 °F 100% 30.30 in 6.2 mi SW 3.5 mph - N/A   Partly Cloudy
9:50 AM 60.8 °F 59.0 °F 94% 30.33 in 6.2 mi WSW 4.6 mph - N/A   Partly Cloudy
10:00 AM 61 °F 58 °F 87% 30.33 in 25 mi WSW 4.6 mph - -   Partly Cloudy
10:20 AM 60.8 °F 59.0 °F 94% 30.33 in 6.2 mi WSW 8.1 mph - N/A   Mostly Cloudy
10:50 AM 62.6 °F 59.0 °F 88% 30.33 in 6.2 mi SW 6.9 mph - N/A   Scattered Clouds
11:20 AM 62.6 °F 59.0 °F 88% 30.33 in 6.2 mi SW 8.1 mph - N/A   Scattered Clouds
11:50 AM 60.8 °F 59.0 °F 94% 30.33 in 6.2 mi SW 8.1 mph - N/A   Scattered Clouds
12:20 PM 62.6 °F 59.0 °F 88% 30.33 in 6.2 mi SW 10.4 mph - N/A   Partly Cloudy
12:50 PM 62.6 °F 57.2 °F 82% 30.33 in 6.2 mi WSW 9.2 mph - N/A   Partly Cloudy
1:00 PM 63 °F 58 °F 78% 30.35 in 34 mi WSW 9.2 mph - -   Scattered Clouds
1:20 PM 62.6 °F 59.0 °F 88% 30.33 in 6.2 mi SW 9.2 mph - N/A   Mostly Cloudy
1:50 PM 62.6 °F 59.0 °F 88% 30.33 in 6.2 mi SW 9.2 mph - N/A   Scattered Clouds
2:20 PM 60.8 °F 57.2 °F 88% 30.33 in 6.2 mi West 8.1 mph - N/A   Scattered Clouds
2:50 PM 60.8 °F 57.2 °F 88% 30.33 in 6.2 mi West 6.9 mph - N/A   Scattered Clouds
3:20 PM 60.8 °F 57.2 °F 88% 30.33 in 6.2 mi West 6.9 mph - N/A   Partly Cloudy
3:50 PM 60.8 °F 57.2 °F 88% 30.33 in 6.2 mi West 8.1 mph - N/A   Scattered Clouds
4:00 PM 60 °F 57 °F 87% 30.33 in 25 mi West 8.1 mph - -   Partly Cloudy
4:20 PM 60.8 °F 57.2 °F 88% 30.30 in 6.2 mi West 5.8 mph - N/A   Partly Cloudy
4:50 PM 60.8 °F 57.2 °F 88% 30.30 in 6.2 mi West 5.8 mph - N/A   Partly Cloudy
5:20 PM 60.8 °F 57.2 °F 88% 30.30 in 6.2 mi West 5.8 mph - N/A   Scattered Clouds
5:50 PM 59.0 °F 55.4 °F 88% 30.30 in 6.2 mi West 5.8 mph - N/A   Partly Cloudy
6:20 PM 59.0 °F 55.4 °F 88% 30.30 in 6.2 mi WNW 4.6 mph - N/A   Partly Cloudy
6:50 PM 57.2 °F 55.4 °F 94% 30.33 in 6.2 mi WNW 2.3 mph - N/A   Partly Cloudy
7:00 PM 57 °F 55 °F 92% 30.33 in 25 mi WNW 2.3 mph - -   Scattered Clouds
7:20 PM 57.2 °F 55.4 °F 94% 30.33 in 6.2 mi WNW 2.3 mph - N/A   Partly Cloudy
7:50 PM 55.4 °F 55.4 °F 100% 30.33 in 6.2 mi WNW 2.3 mph - N/A   Partly Cloudy
8:20 PM 55.4 °F 55.4 °F 100% 30.33 in 6.2 mi Calm Calm - N/A   Partly Cloudy
8:50 PM 55.4 °F 55.4 °F 100% 30.33 in 6.2 mi Calm Calm - N/A Fog Shallow Fog
10:00 PM 55 °F 54 °F 97% 30.35 in 22 mi Calm Calm - - Fog Patches of Fog